QPF
0.01 0.00 0.00 0.00 0.00 0.00 0.00 0.00 0.00 0.00 0.00 0.00 0.00 0.00 0.01 0.00 0.00 0.00 0.00 0.00 0.00 0.00 0.00 0.00 0.00 0.00 0.00 0.00 0.00 0.00 0.00 0.00 0.00
0.02 0.00 0.00 0.00 0.00 0.00 0.00 0.00 0.00 0.00 0.00 0.00 0.00 0.00 0.00 0.00 0.00 0.00 0.00 0.00 0.00 0.00 0.00 0.00 0.00 0.00 0.00 0.00 0.00 0.00 0.00 0.00 0.00
0.02 0.00 0.00 0.00 0.00 0.00 0.00 0.00 0.00 0.00 0.00 0.00 0.00 0.00 0.00 0.00 0.00 0.00 0.00 0.00 0.00 0.00 0.01 0.01 0.00 0.00 0.00 0.00 0.00 0.00 0.00 0.00 0.00
0.02 0.01 0.00 0.00 0.00 0.00 0.00 0.00 0.00 0.00 0.00 0.00 0.00 0.00 0.00 0.00 0.00 0.00 0.00 0.00 0.00 0.00 0.01 0.02 0.03 0.05 0.04 0.02 0.00 0.00 0.00 0.00 0.00
0.00 0.00 0.00 0.00 0.00 0.00 0.00 0.01 0.00 0.00 0.00 0.00 0.00 0.00 0.00 0.00 0.00 0.00 0.00 0.00 0.00 0.00 0.00 0.01 0.01 0.03 0.06 0.07 0.07 0.06 0.04 0.01 0.00
0.00 0.00 0.00 0.00 0.00 0.00 0.00 0.00 0.00 0.00 0.00 0.00 0.00 0.00 0.00 0.00 0.00 0.00 0.00 0.00 0.00 0.00 0.00 0.00 0.00 0.00 0.00 0.01 0.02 0.05 0.08 0.11 0.07
0.00 0.00 0.00 0.00 0.00 0.00 0.00 0.00 0.00 0.00 0.00 0.00 0.00 0.00 0.00 0.00 0.00 0.00 0.00 0.00 0.00 0.00 0.00 0.00 0.00 0.00 0.00 0.00 0.00 0.00 0.00 0.01 0.03
0.00 0.00 0.00 0.00 0.00 0.00 0.00 0.00 0.00 0.00 0.00 0.00 0.00 0.00 0.00 0.00 0.00 0.00 0.00 0.00 0.00 0.00 0.00 0.00 0.00 0.00 0.00 0.00 0.00 0.00 0.00 0.00 0.00
0.00 0.00 0.00 0.00 0.00 0.00 0.00 0.00 0.00 0.00 0.00 0.00 0.00 0.00 0.00 0.00 0.00 0.00 0.00 0.00 0.00 0.00 0.00 0.00 0.00 0.00 0.00 0.00 0.00 0.00 0.00 0.00 0.00
0.00 0.00 0.00 0.00 0.00 0.00 0.00 0.00 0.00 0.00 0.00 0.00 0.00 0.00 0.00 0.00 0.00 0.00 0.00 0.00 0.00 0.00 0.00 0.00 0.00 0.00 0.00 0.00 0.00 0.00 0.00 0.00 0.00
0.00 0.00 0.00 0.00 0.00 0.00 0.00 0.00 0.00 0.00 0.00 0.00 0.00 0.00 0.00 0.00 0.00 0.00 0.00 0.00 0.00 0.00 0.00 0.00 0.00 0.00 0.00 0.00 0.00 0.00 0.00 0.00 0.00
0.00 0.00 0.00 0.00 0.00 0.00 0.00 0.00 0.00 0.00 0.00 0.00 0.00 0.00 0.00 0.00 0.00 0.00 0.00 0.00 0.00 0.00 0.00 0.00 0.00 0.00 0.00 0.00 0.00 0.00 0.00 0.00 0.00
0.00 0.00 0.00 0.00 0.00 0.00 0.00 0.00 0.00 0.00 0.00 0.00 0.00 0.00 0.00 0.00 0.00 0.00 0.00 0.00 0.00 0.00 0.00 0.00 0.00 0.00 0.00 0.00 0.00 0.00 0.00 0.00 0.00
0.00 0.00 0.00 0.00 0.00 0.00 0.00 0.00 0.00 0.00 0.00 0.00 0.00 0.00 0.00 0.00 0.00 0.00 0.00 0.00 0.00 0.00 0.00 0.00 0.00 0.00 0.00 0.00 0.00 0.00 0.00 0.00 0.00
0.00 0.00 0.00 0.00 0.00 0.00 0.00 0.00 0.00 0.00 0.00 0.00 0.00 0.00 0.00 0.00 0.00 0.00 0.00 0.00 0.00 0.00 0.00 0.00 0.00 0.00 0.00 0.00 0.00 0.00 0.00 0.00 0.00
0.00 0.00 0.00 0.00 0.00 0.00 0.00 0.00 0.00 0.00 0.00 0.00 0.00 0.00 0.00 0.00 0.00 0.00 0.00 0.00 0.00 0.00 0.00 0.00 0.00 0.00 0.00 0.00 0.00 0.00 0.00 0.00 0.00
0.00 0.00 0.00 0.00 0.00 0.00 0.00 0.00 0.00 0.00 0.00 0.00 0.00 0.00 0.00 0.00 0.00 0.00 0.00 0.00 0.00 0.00 0.00 0.00 0.00 0.00 0.00 0.00 0.00 0.00 0.00 0.00 0.00
0.00 0.00 0.00 0.00 0.00 0.00 0.00 0.00 0.00 0.00 0.00 0.00 0.00 0.00 0.00 0.00 0.00 0.00 0.00 0.00 0.00 0.00 0.00 0.00 0.00 0.00 0.00 0.00 0.00 0.00 0.00 0.00 0.00
0.00 0.00 0.00 0.00 0.00 0.00 0.00 0.00 0.00 0.00 0.00 0.00 0.00 0.00 0.00 0.00 0.00 0.00 0.00 0.00 0.00 0.00 0.00 0.00 0.00 0.00 0.00 0.00 0.00 0.00 0.00 0.00 0.00
0.00 0.00 0.00 0.00 0.00 0.00 0.00 0.00 0.00 0.00 0.00 0.00 0.00 0.00 0.00 0.00 0.00 0.00 0.00 0.00 0.00 0.00 0.00 0.00 0.00 0.00 0.00 0.00 0.00 0.00 0.00 0.00 0.00
MSLP
1015.09 1015.12 1015.33 1015.57 1015.68 1015.75 1015.71 1015.74 1015.65 1015.70 1015.63 1015.63 1015.41 1015.25 1015.28 1015.08 1014.39 1014.48 1014.55 1014.69 1014.77 1014.90 1014.89 1014.75 1014.58 1014.36 1014.17 1014.21 1014.40 1014.49 1014.53 1014.54 1014.49
1014.98 1015.23 1015.43 1015.70 1015.81 1015.81 1015.70 1015.57 1015.66 1015.70 1015.53 1015.58 1015.41 1015.39 1015.42 1014.85 1014.47 1014.44 1014.48 1014.51 1014.95 1014.72 1014.65 1014.57 1014.46 1014.30 1014.13 1013.98 1014.10 1014.04 1014.17 1014.26 1014.19
1014.77 1015.32 1015.59 1015.78 1015.87 1015.81 1015.71 1015.63 1015.67 1015.65 1015.51 1015.52 1015.52 1015.53 1015.48 1014.63 1014.36 1014.41 1014.39 1014.72 1014.94 1014.56 1014.44 1014.28 1014.16 1014.08 1013.97 1013.87 1013.82 1013.77 1013.85 1013.91 1013.94
1015.31 1015.46 1015.71 1015.87 1015.94 1015.85 1015.78 1015.78 1015.72 1015.59 1015.65 1015.59 1015.64 1015.57 1015.43 1014.71 1014.43 1014.55 1014.26 1014.90 1014.77 1014.39 1014.18 1014.04 1013.92 1013.75 1013.59 1013.53 1013.48 1013.45 1013.43 1013.44 1013.49
1015.62 1015.78 1015.88 1016.02 1016.01 1015.98 1015.94 1015.89 1015.98 1015.92 1015.93 1015.90 1015.93 1015.71 1015.25 1014.66 1014.59 1014.26 1014.51 1014.97 1014.58 1014.19 1014.05 1013.90 1013.83 1013.67 1013.49 1013.30 1013.20 1013.11 1013.15 1013.03 1013.04
1015.31 1015.93 1016.11 1016.17 1016.08 1016.08 1016.22 1016.24 1016.31 1016.19 1016.11 1016.05 1015.95 1015.63 1014.93 1014.67 1014.74 1014.38 1015.10 1014.84 1014.44 1014.18 1014.06 1013.89 1013.80 1013.61 1013.45 1013.16 1013.01 1012.89 1012.77 1012.70 1012.73
1015.33 1015.77 1016.03 1016.28 1016.33 1016.43 1016.41 1016.36 1016.34 1015.94 1015.61 1015.53 1015.61 1015.24 1015.21 1014.75 1015.04 1014.56 1015.32 1014.83 1014.37 1014.17 1014.00 1013.82 1013.78 1013.73 1013.56 1013.37 1013.13 1012.87 1012.72 1012.60 1012.55
1015.24 1015.25 1015.39 1015.59 1016.20 1016.04 1016.14 1015.95 1016.04 1016.16 1016.06 1015.91 1015.69 1015.63 1015.48 1015.03 1015.07 1015.29 1015.53 1014.88 1014.44 1014.18 1014.26 1014.18 1014.07 1013.88 1013.82 1013.62 1013.49 1013.35 1013.23 1013.04 1012.87
1015.07 1015.00 1015.47 1015.78 1016.15 1016.18 1016.18 1016.09 1016.24 1016.24 1016.23 1016.22 1015.88 1015.68 1015.57 1015.26 1015.25 1015.68 1015.93 1015.14 1014.85 1014.74 1014.76 1014.65 1014.40 1014.41 1014.20 1013.94 1013.84 1013.71 1013.54 1013.40 1013.18
1014.99 1015.66 1016.06 1016.10 1016.24 1016.40 1016.31 1016.32 1016.31 1016.27 1016.29 1016.25 1016.04 1015.82 1015.64 1015.51 1015.49 1015.75 1016.33 1015.83 1015.61 1015.49 1015.35 1015.12 1015.11 1014.89 1014.57 1014.37 1014.23 1013.95 1013.85 1013.62 1013.40
1015.52 1016.24 1016.49 1016.32 1016.60 1016.83 1016.73 1016.65 1016.73 1016.49 1016.36 1016.18 1016.11 1015.92 1015.94 1015.80 1015.80 1015.86 1016.48 1016.49 1016.26 1016.09 1015.92 1015.79 1015.61 1015.37 1015.09 1014.81 1014.61 1014.33 1014.08 1013.94 1013.77
1015.88 1016.50 1016.56 1016.60 1016.97 1016.96 1016.99 1017.00 1016.91 1016.71 1016.41 1016.07 1016.19 1016.05 1015.98 1016.02 1016.01 1016.14 1016.12 1016.32 1016.78 1016.71 1016.50 1016.33 1016.10 1015.83 1015.50 1015.15 1014.87 1014.68 1014.47 1014.29 1014.08
1016.11 1016.40 1016.62 1016.88 1017.03 1017.17 1017.23 1017.34 1016.94 1016.82 1016.55 1016.21 1016.03 1016.08 1016.10 1016.14 1016.17 1016.34 1016.22 1016.45 1016.32 1016.59 1016.85 1016.66 1016.42 1016.16 1015.78 1015.39 1015.05 1014.81 1014.58 1014.41 1014.22
1016.18 1016.42 1016.83 1017.12 1017.32 1017.44 1017.43 1017.58 1017.34 1017.03 1016.83 1016.44 1016.16 1016.27 1016.02 1016.20 1016.27 1016.39 1016.50 1016.71 1016.58 1016.58 1016.67 1016.64 1016.32 1016.31 1016.02 1015.59 1015.21 1014.95 1014.65 1014.35 1014.17
1015.87 1016.48 1016.95 1017.30 1017.50 1017.54 1017.70 1017.76 1017.72 1017.67 1017.41 1016.79 1016.42 1016.42 1016.19 1016.37 1016.29 1016.39 1016.39 1016.58 1016.68 1016.66 1016.57 1016.30 1015.94 1016.01 1015.98 1015.71 1015.37 1015.11 1014.71 1014.31 1014.00
1015.86 1016.58 1017.11 1017.43 1017.49 1017.84 1017.95 1018.00 1017.91 1017.94 1017.84 1016.94 1016.38 1016.29 1016.44 1016.36 1016.19 1016.23 1016.15 1016.51 1016.54 1016.49 1016.43 1016.23 1015.98 1015.57 1015.54 1015.40 1015.41 1015.12 1014.73 1014.33 1013.91
1016.01 1016.60 1017.20 1017.48 1017.77 1018.06 1018.26 1018.23 1018.07 1018.27 1018.46 1017.91 1017.23 1016.32 1016.05 1016.11 1016.20 1016.29 1016.36 1016.31 1016.33 1016.30 1016.37 1016.28 1016.01 1015.76 1015.49 1015.28 1015.32 1015.10 1014.80 1014.36 1013.76
1016.34 1016.85 1017.31 1017.74 1017.96 1018.29 1018.51 1018.56 1018.50 1018.43 1018.73 1018.76 1018.25 1017.22 1016.72 1016.86 1016.03 1016.10 1016.24 1016.24 1016.36 1016.41 1016.38 1016.20 1015.94 1015.74 1015.39 1015.15 1014.94 1014.99 1014.88 1014.28 1013.71
1016.67 1017.13 1017.50 1017.84 1018.11 1018.38 1018.64 1018.86 1018.97 1018.90 1018.83 1018.84 1018.97 1018.74 1018.51 1017.64 1016.45 1016.19 1016.19 1016.58 1016.59 1016.45 1016.27 1016.10 1015.80 1015.54 1015.29 1015.14 1014.96 1014.92 1014.73 1014.27 1013.53
1016.92 1017.39 1017.80 1018.06 1018.23 1018.55 1018.84 1019.08 1019.21 1019.29 1019.18 1019.20 1019.02 1018.80 1018.59 1018.44 1018.00 1016.59 1016.06 1016.24 1016.22 1016.23 1016.25 1016.08 1015.64 1015.30 1015.18 1014.88 1014.74 1014.92 1014.71 1014.12 1013.48
Thickness
5709 5709 5706 5704 5703 5703 5703 5702 5703 5701 5702 5701 5703 5703 5702 5704 5707 5705 5704 5702 5702 5700 5698 5698 5699 5700 5701 5700 5698 5696 5696 5696 5697
5708 5705 5703 5700 5699 5700 5701 5702 5700 5698 5699 5697 5698 5698 5696 5700 5701 5700 5699 5697 5694 5696 5694 5694 5694 5695 5695 5696 5694 5694 5693 5692 5693
5706 5701 5698 5697 5696 5697 5698 5699 5697 5696 5696 5694 5693 5692 5692 5697 5697 5695 5694 5690 5688 5692 5690 5690 5690 5690 5690 5690 5690 5690 5689 5689 5689
5699 5697 5695 5693 5693 5694 5694 5693 5692 5692 5690 5689 5687 5687 5687 5691 5691 5689 5690 5684 5684 5686 5686 5686 5685 5685 5686 5686 5685 5686 5686 5686 5685
5693 5691 5691 5689 5689 5688 5688 5687 5686 5685 5683 5680 5678 5679 5682 5684 5684 5686 5683 5679 5679 5681 5680 5680 5679 5679 5679 5680 5681 5681 5680 5681 5681
5692 5687 5686 5684 5684 5684 5681 5680 5678 5678 5676 5673 5672 5672 5676 5678 5676 5680 5673 5673 5674 5675 5674 5674 5673 5671 5672 5675 5675 5675 5676 5676 5676
5686 5684 5682 5679 5677 5676 5676 5675 5672 5673 5673 5672 5670 5670 5668 5673 5667 5673 5666 5668 5670 5669 5668 5669 5667 5665 5667 5667 5667 5669 5669 5670 5670
5682 5682 5680 5677 5673 5673 5671 5671 5668 5666 5664 5664 5664 5663 5663 5665 5662 5662 5657 5661 5663 5663 5661 5659 5658 5660 5658 5659 5660 5659 5659 5660 5660
5677 5677 5673 5670 5667 5666 5664 5664 5661 5660 5658 5657 5658 5658 5657 5658 5656 5653 5648 5652 5652 5651 5649 5648 5649 5646 5647 5650 5650 5648 5650 5649 5650
5672 5666 5663 5662 5660 5658 5657 5656 5655 5654 5652 5651 5651 5651 5651 5650 5647 5644 5638 5639 5638 5636 5635 5636 5634 5634 5636 5637 5637 5638 5638 5639 5639
5663 5657 5654 5654 5651 5648 5648 5648 5645 5646 5646 5646 5644 5644 5642 5641 5638 5635 5628 5627 5625 5623 5622 5621 5621 5622 5623 5624 5625 5626 5626 5626 5626
5654 5649 5648 5645 5641 5641 5640 5638 5637 5637 5638 5640 5636 5636 5634 5631 5628 5624 5623 5619 5614 5612 5612 5611 5611 5611 5611 5612 5613 5613 5614 5613 5613
5647 5643 5641 5637 5635 5633 5632 5629 5631 5630 5630 5632 5631 5628 5625 5622 5619 5614 5613 5608 5608 5604 5601 5601 5601 5600 5601 5601 5602 5601 5602 5602 5600
5640 5637 5633 5629 5627 5625 5624 5620 5621 5621 5621 5623 5622 5618 5618 5614 5610 5606 5603 5599 5598 5595 5593 5592 5592 5589 5588 5589 5588 5588 5588 5588 5587
5635 5630 5625 5621 5619 5618 5615 5613 5611 5609 5608 5611 5612 5609 5608 5603 5601 5597 5595 5590 5587 5585 5583 5582 5583 5579 5576 5575 5574 5573 5572 5573 5573
5629 5622 5617 5614 5612 5608 5606 5604 5603 5600 5597 5602 5605 5602 5597 5595 5593 5589 5587 5581 5578 5575 5572 5570 5569 5568 5565 5563 5559 5558 5557 5557 5558
5621 5616 5610 5607 5603 5599 5596 5595 5595 5590 5585 5587 5587 5593 5593 5587 5584 5579 5574 5572 5568 5564 5559 5556 5554 5553 5551 5549 5544 5542 5541 5542 5543
5612 5607 5603 5598 5595 5590 5586 5584 5582 5582 5575 5571 5574 5582 5581 5572 5576 5571 5565 5560 5555 5549 5545 5542 5538 5536 5534 5532 5529 5526 5523 5524 5525
5602 5598 5593 5589 5585 5581 5577 5573 5569 5567 5565 5563 5557 5554 5552 5558 5567 5565 5558 5550 5543 5538 5533 5528 5525 5522 5518 5514 5511 5507 5504 5504 5505
5593 5588 5583 5579 5576 5571 5567 5562 5558 5554 5552 5548 5546 5544 5542 5538 5537 5547 5549 5541 5535 5529 5523 5517 5513 5509 5504 5501 5497 5491 5487 5487 5487